Regional Weather Roundup
Issued by NWS

Home | Current Version | Previous Version | Text Only | Print | Product List | Glossary Off
Versions: 1 2 3 4 5 6 7 8 9 10 11 12 13 14 15 16 17 18 19 20 21 22 23 24 25 26 27 28 29 30 31 32 33 34 35 36 37 38 39 40 41 42 43 44 45 46 47 48 49 50

000
ASUS43 KDMX 291704
RWRIA

WEATHER ROUNDUP FOR IOWA
NATIONAL WEATHER SERVICE DES MOINES IA
  ISSUED BY NWS QUAD CITIES IA IL
1100 AM CST THU JAN 29 2015

NOTE: "FAIR" INDICATES FEW OR NO CLOUDS BELOW 12,000 FEET WITH NO
SIGNIFICANT WEATHER AND/OR OBSTRUCTIONS TO VISIBILITY.

* - THESE STATIONS ARE NOT NWS STATIONS...THUS NOT UNDER NWS
QUALITY CONTROL.  THEY ALSO DO NOT REPORT WEATHER SUCH
AS PRECIPITATION OR FOG.

IAZ001>003-012>014-020>022-031>034-043>046-291800-
   NORTHWEST IOWA

CITY           SKY/WX    TMP DP  RH WIND       PRES   REMARKS
CARROLL *      CLOUDY    34  27  75 N26G36    30.30R WCI  21
CHEROKEE *     CLOUDY    33  28  83 NW18G24   30.35R WCI  21
DENNISON *     CLOUDY    34  28  80 NW20G28   30.33R WCI  22
LE MARS *      CLOUDY    34  28  80 NW15      30.39R WCI  24
ORANGE CITY *  CLOUDY    34  27  75 NW15G26   30.36R WCI  24
SIOUX CITY     CLOUDY    35  27  72 NW22G32   30.39R WCI  23
SPENCER        CLOUDY    32  24  72 NW30G36   30.32R WCI  18
$$

IAZ055>058-069>071-079>083-090>094-291800-
   SOUTHWEST IOWA

CITY           SKY/WX    TMP DP  RH WIND       PRES   REMARKS
ATLANTIC *     CLOUDY    34  27  75 N28G39    30.33R WCI  20
AUDUBON *      PTSUNNY   34  27  75 N24G33    30.32R WCI  21
CLARINDA *     CLOUDY    37  27  65 NW29G39   30.35R WCI  25
COUNCIL BLFS * CLOUDY    36  28  75 NW20G29   30.36R WCI  25
CRESTON *      CLOUDY    34  28  80 NW29G40   30.28R WCI  20
HARLAN *       CLOUDY    34  28  80 N24G31    30.38R WCI  21
LAMONI         CLOUDY    36  28  73 N21G29    30.26R WCI  25
RED OAK *      CLOUDY    37  27  65 NW23G37   30.36R WCI  26
$$

IAZ047>049-059>061-072>074-084-291800-
   CENTRAL IOWA

CITY           SKY/WX    TMP DP  RH WIND       PRES   REMARKS
AMES           CLOUDY    32  25  75 NW26G35   30.25R WCI  18
ANKENY *       CLOUDY    34  28  80 NW20G28   30.26R WCI  22
BOONE *        CLOUDY    32  28  86 NW22G37   30.24R WCI  19
CHARITON *     LGT RAIN  34  28  80 NW26      30.23R WCI  21
DES MOINES     CLOUDY    34  27  75 N17G26    30.26R WCI  23
GRINNELL *     CLOUDY    32  28  86 NW24G36   30.20R WCI  19
KNOXVILLE *    CLOUDY    34  27  75 NW26G33   30.22R WCI  21
MARSHALLTOWN   CLOUDY    32  27  81 NW25G32   30.20R WCI  19
PELLA *        CLOUDY    34  28  80 NW28G39   30.23R WCI  20
PERRY *          N/A     33  28  82 N22G36    30.29R WCI  20
$$

IAZ004>006-015-016-023>025-035-036-291800-
   NORTH CENTRAL IOWA

CITY           SKY/WX    TMP DP  RH WIND       PRES   REMARKS
ALGONA *       CLOUDY    32  27  80 N25G32    30.27R WCI  19
CLARION *      CLOUDY    30  28  93 N26G37    30.24R WCI  16
ESTHERVILLE    CLOUDY    29  24  82 NW25G33   30.30R WCI  14
FORT DODGE *   CLOUDY    30  25  80 N23G31    30.28R WCI  17
MASON CITY     CLOUDY    30  25  81 N29G39    30.21R WCI  15
WEBSTER CITY * LGT RAIN  30  30 100 NW30G38   30.24R WCI  15
IOWA FALLS *   CLOUDY    31  26  82 NW26G41   30.22R WCI  17
$$

IAZ007>011-017>019-026>030-037>042-050>054-066-291800-
   NORTHEAST IOWA

CITY           SKY/WX    TMP DP  RH WIND       PRES   REMARKS
CEDAR RAPIDS   CLOUDY    33  30  88 NW24G32   30.11R WCI  20
CHARLES CITY * CLOUDY    32  30  93 NW22G35   30.16R WCI  19
CLINTON *      CLOUDY    34  28  80 NW18      30.07R WCI  23
DECORAH *      CLOUDY    34  28  80 N16G26    30.09R WCI  23
DUBUQUE        CLOUDY    33  29  85 NW18G26   30.04R FOG     WCI  22
MONTICELLO *   CLOUDY    36  30  80 NW22G30   30.07R WCI  24
OELWEIN *      CLOUDY    32  30  93 NW22G31   30.12R FOG     WCI  19
WATERLOO       CLOUDY    33  28  81 NW21G29   30.16R WCI  21
$$

IAZ064-065-067-068-078-291800-
   EAST CENTRAL IOWA

CITY           SKY/WX    TMP DP  RH WIND       PRES   REMARKS
DAVENPORT      CLOUDY    35  29  78 NW18      30.06R WCI  24
IOWA CITY      CLOUDY    35  31  85 NW16G26   30.14R WCI  25
MT. PLEASANT * CLOUDY    35  31  88 NW17G23   30.15R WCI  24
MUSCATINE *    CLOUDY    36  32  87 NW20      30.12R WCI  25
QUAD CITIES    CLOUDY    36  30  79 NW20G28   30.06R WCI  25
$$

IAZ062-063-075>077-085>089-095>099-291800-
   SOUTHEAST IOWA

CITY           SKY/WX    TMP DP  RH WIND       PRES   REMARKS
BURLINGTON     CLOUDY    36  32  85 NW18G31   30.11R WCI  26
FAIRFIELD *    CLOUDY    36  30  80 NW22G31   30.16R WCI  24
FORT MADISON * CLOUDY    36  34  93 NW22      30.14R FOG     WCI  24
KEOKUK *       CLOUDY    37  32  81 NW16G25   30.14R WCI  28
OTTUMWA        CLOUDY    34  29  82 NW28G35   30.19R WCI  21
WASHINGTON *   CLOUDY    36  34  93 NW29G39   30.15R WCI  23
$$

ABBREVIATIONS USED IN REMARKS
   TC - TEMPERATURES IN CELSIUS
  WCI - WIND CHILL INDEX
   HX - HEAT INDEX
  VSB - VISIBILITY
$$


USA.gov is the U.S. government's official web portal to all federal, state and local government web resources and services.